Team logos
Guidelines for entries Team Leaderboard Add or Update a Person FAQ
Mar 2015 - The Paddypower Sprintervals
This challenge was chosen by The Paddypower Team

Row three times 250 metres with two minutes rest.

The first rep from a standing start, the others as you like.

Record the total time for 750 metres.

There are no stroke rate restrictions on this challenge.


The April challenge will be chosen by SUB7


See the ISS forum thread for details.

Most Recent EntriesAdd/Update an Entry
DateNameCatTeamResult
2015-03-31js.klsMLWTFIRT 2:11.5
2015-03-31Alfred OkelloMLWTSub 7 2:18.6
2015-03-31Phil Nolan FSMHWTFree Spirits 2:27.1
2015-03-31Bjorn Tore LoddingMHWTSub 7 2:09.5
2015-03-31PP Lee BawnMHWTPaddy Power 1:59.8
Bold = new time; italic = updated time
Name:
Password:
Entry: hours min sec
 
Current Leaderboard
Names in blue italics have added or updated their times within the past 24 hours.
#NameCatTeamResultPacePower
1Ross LoveMPaddy Power I  1:50.0   1:13.3  887.5 
2Dirk MöllerMForum Flyers I  1:51.8   1:14.5  845.3 
3Callan LavenderMSub 7 I  1:53.7   1:15.8  803.6 
4MarcosMFIRT I  1:53.9   1:15.9  799.4 
5Andy BenkoMPaddy Power I  1:54.2   1:16.1  793.1 
6Lloyd GilbyMSub 7 I  1:55.2   1:16.8  772.7 
7Dave MarshallMMAD I  1:55.2   1:16.8  772.7 
8rich pruynMForum Flyers I  1:55.2   1:16.8  772.7 
9macrothMForum Flyers I  1:55.3   1:16.9  770.6 
10noelMPaddy Power I  1:55.4   1:16.9  768.6 
11Brett SteelsMSub 7 I  1:57.2   1:18.1  733.8 
12Maciej MaciejewskiMPaddy Power II  1:57.3   1:18.2  731.9 
13Morgan GuthnerMPaddy Power II  1:57.8   1:18.5  722.6 
14Rich BlagroveMMAD I  1:58.2   1:18.8  715.3 
15Simon NewtonMGee Crew I  1:58.3   1:18.9  713.5 
16Peter SnelsonMPaddy Power II  1:58.3   1:18.9  713.5 
17Shawn BakerMForum Flyers II  1:58.3   1:18.9  713.5 
18Matt VanstoneMSub 7 II  1:58.9   1:19.3  702.7 
19hjsMForum Flyers II  1:59.8   1:19.9  687.0 
20PP Lee BawnMPaddy Power III  1:59.8   1:19.9  687.0 
21Robert StrachanMSub 7 II  2:00.1   1:20.1  681.9 
22Julian WarrickMPaddy Power III  2:00.5   1:20.3  675.1 
23David ScottMSub 7 II  2:00.5   1:20.3  675.1 
24Wallace WanMSub 7 III  2:00.7   1:20.5  671.8 
25JHilstonMForum Flyers II  2:01.1   1:20.7  665.1 
26Chris MurrayMGee Crew I  2:01.2   1:20.8  663.5 
27Glynn PowellMSub 7 III  2:01.4   1:20.9  660.2 
28Stewart WyllieMRowPro Rowers I  2:01.9   1:21.3  652.1 
29Mark ChristieMForum Flyers III  2:02.0   1:21.3  650.5 
30Barry GreigMSub 7 III  2:02.1   1:21.4  648.9 
31Ian WildeMSub 7 IV  2:02.2   1:21.5  647.3 
32Christopher RyanMFree Spirits I  2:02.5   1:21.7  642.6 
33Martin StillMSub 7 IV  2:02.6   1:21.7  641.0 
34Jason McCormackMPaddy Power III  2:02.7   1:21.8  639.5 
35j.dMMAD I  2:02.9   1:21.9  636.3 
36danfennellMFree Spirits I  2:02.9   1:21.9  636.3 
37Andy J PearceMC2TweetCrew I  2:03.0   1:22.0  634.8 
38Dave ChmilowskyjMTeam Oarsome I  2:03.0   1:22.0  634.8 
391 Olly ThorneMMAD II  2:03.1   1:22.1  633.2 
40Pete MarstonMMAD II  2:03.2   1:22.1  631.7 
41Charles AndersonMC2TweetCrew I  2:03.5   1:22.3  627.1 
42Casey ClarkeMSub 7 IV  2:03.6   1:22.4  625.6 
43Richard CheesemanMSub 7 V  2:03.6   1:22.4  625.6 
44LiefcatMFree Spirits I  2:03.6   1:22.4  625.6 
45GukUMFIRT I  2:03.7   1:22.5  624.1 
46Johnny KolsterMSub 7 V  2:03.9   1:22.6  621.1 
47BrenanMTribesports I  2:04.1   1:22.7  618.1 
48haaicoMFree Spirits II  2:04.1   1:22.7  618.1 
49Ian WittMSub 7 V  2:04.5   1:23.0  612.1 
50David ByrnesmSub 7 I  2:04.5   1:23.0  612.1 
51Johan EklundMRote 87 RK I  2:04.5   1:23.0  612.1 
52Stephen o SullivanmPaddy Power I  2:04.5   1:23.0  612.1 
53MarkM FFMForum Flyers III  2:04.6   1:23.1  610.6 
54Rainer SaadMEmpty the Tanks I  2:04.7   1:23.1  609.2 
55Howard BrammerMFitness Matters I  2:04.7   1:23.1  609.2 
56MaximusMPaddy Power IV  2:04.8   1:23.2  607.7 
57Martin FFMForum Flyers III  2:04.9   1:23.3  606.3 
58Al TaylorMTeam Oarsome I  2:05.1   1:23.4  603.4 
59Mike LoveMPaddy Power IV  2:05.3   1:23.5  600.5 
60Frank NoorlanderMForum Flyers IV  2:05.5   1:23.7  597.6 
61Phil HoyleMC2TweetCrew I  2:05.7   1:23.8  594.8 
62Kevin FFMForum Flyers IV  2:05.8   1:23.9  593.3 
63Stewart MossMSub 7 VI  2:05.8   1:23.9  593.3 
64Remy CoubelMFIRT I  2:05.8   1:23.9  593.3 
65Chris BaldwinMPaddy Power IV  2:05.8   1:23.9  593.3 
66Little DanMThe Banana Boat I  2:06.0   1:24.0  590.5 
67Nigel COLLEYMFitness Matters I  2:06.0   1:24.0  590.5 
68Little ChrismThe Banana Boat I  2:06.1   1:24.1  589.1 
69Jean-Charles RSMFIRT II  2:06.2   1:24.1  587.7 
70gregsmith01748MFree Spirits II  2:06.3   1:24.2  586.3 
71Sebastien LallierMRowPro Rowers I  2:06.3   1:24.2  586.3 
72Ola HultgrenMRowPro Rowers I  2:06.3   1:24.2  586.3 
73Ben MMTribesports I  2:06.4   1:24.3  584.9 
74Robert JonesMSub 7 VI  2:06.5   1:24.3  583.5 
75Michel PelletierMRowPro Rowers II  2:06.6   1:24.4  582.2 
76Jon GoodallMMAD II  2:06.6   1:24.4  582.2 
77Bjorn_StensheimMRowPro Rowers II  2:06.7   1:24.5  580.8 
78andre.colauttiMFIRT II  2:06.7   1:24.5  580.8 
79Tony PurserMSub 7 VI  2:06.8   1:24.5  579.4 
80Mark MitchellmMAD I  2:06.8   1:24.5  579.4 
81David LIOTMFIRT II  2:07.1   1:24.7  575.3 
82TjololoMFIRT III  2:07.2   1:24.8  574.0 
83Elena BuryakFSub 7 I  2:07.2   1:24.8  574.0 
84LindsayhMForum Flyers IV  2:07.4   1:24.9  571.3 
85Thierry GOURSOLLEMFIRT III  2:07.4   1:24.9  571.3 
86Steve RoeddemTeam Oarsome I  2:07.5   1:25.0  569.9 
87Danny WatsonmSub 7 II  2:07.6   1:25.1  568.6 
88guillaume.deromanetMFIRT III  2:07.7   1:25.1  567.2 
89Ben GilmoreMSub 7 VII  2:07.7   1:25.1  567.2 
90max grdMFIRT IV  2:07.8   1:25.2  565.9 
91Vivien MarmelatMFIRT IV  2:07.9   1:25.3  564.6 
92sylvain.pichenotMFIRT IV  2:08.0   1:25.3  563.3 
93GUNMFIRT V  2:08.0   1:25.3  563.3 
94Alastair PeakemSub 7 III  2:08.1   1:25.4  561.9 
95DavidHolmbergmFree Spirits I  2:08.3   1:25.5  559.3 
96Gaël SAGONMFIRT V  2:08.3   1:25.5  559.3 
97Mikkel Ellesøe HansenMFree Spirits II  2:08.6   1:25.7  555.4 
98PaosullivanMPaddy Power V  2:08.8   1:25.9  552.8 
99Pierre LGMMFIRT V  2:08.8   1:25.9  552.8 
100Ralf AchenbachMC2TweetCrew II  2:08.8   1:25.9  552.8 
101Steve SidawayMSub 7 VII  2:08.8   1:25.9  552.8 
102hugaultMFIRT VI  2:08.9   1:25.9  551.5 
103Richard SteventonMSub 7 VII  2:09.1   1:26.1  549.0 
104Julien ADANMFIRT VI  2:09.2   1:26.1  547.7 
105Steve ColesMEmpty the Tanks I  2:09.2   1:26.1  547.7 
106Bjorn Tore LoddingMSub 7 VIII  2:09.5   1:26.3  543.9 
107Mike Channin (Tribesports)MTribesports I  2:09.6   1:26.4  542.7 
108Steve JenningsMDLC Gidea Park I  2:09.6   1:26.4  542.7 
109Maxence JanodetmFIRT I  2:09.6   1:26.4  542.7 
110Stuart StronachMSub 7 VIII  2:09.6   1:26.4  542.7 
111Mark BowerMEmpty the Tanks I  2:09.9   1:26.6  538.9 
112Jon CiarloMSub 7 VIII  2:09.9   1:26.6  538.9 
113Matthew TiltMFitness Matters I  2:10.0   1:26.7  537.7 
114Mark LysonsMSub 7 IX  2:10.2   1:26.8  535.2 
115EricLMFIRT VI  2:10.5   1:27.0  531.5 
116Euan StronachMSub 7 IX  2:10.5   1:27.0  531.5 
117BOYE-AIPMFIRT VII  2:10.5   1:27.0  531.5 
118Arwed EggermRowPro Rowers I  2:10.5   1:27.0  531.5 
119bakudaina1MSub 7 IX  2:10.7   1:27.1  529.1 
120Andy TownsendMSub 7 X  2:10.8   1:27.2  527.9 
121Mike BeauchampMSub 7 X  2:10.8   1:27.2  527.9 
122TurbomSub 7 IV  2:11.0   1:27.3  525.4 
123AARobert diffleymPaddy Power II  2:11.0   1:27.3  525.4 
124Warren MatthewsMSub 7 X  2:11.0   1:27.3  525.4 
125Paul VictoryMFree Spirits III  2:11.1   1:27.4  524.2 
126W de JongMForum Flyers V  2:11.1   1:27.4  524.2 
127philou71MFIRT VII  2:11.3   1:27.5  521.9 
128stephane blanquartMFIRT VII  2:11.4   1:27.6  520.7 
129FS85mSub 7 V  2:11.5   1:27.7  519.5 
130js.klsmFIRT II  2:11.5   1:27.7  519.5 
131Nigel FarmerMForum Flyers V  2:11.7   1:27.8  517.1 
132Todd CarpenterMForum Flyers V  2:11.8   1:27.9  515.9 
133Aaron LancasterMSub 7 XI  2:11.9   1:27.9  514.8 
134Bert DolMSub 7 XI  2:11.9   1:27.9  514.8 
135FunkyrowerMThe Banana Boat I  2:12.0   1:28.0  513.6 
136Graeme MarshallMAge Without Limits I  2:12.0   1:28.0  513.6 
137EthiennemFIRT III  2:12.0   1:28.0  513.6 
138Andy OsbornMSub 7 XI  2:12.0   1:28.0  513.6 
139Markku HenrikssonmSub 7 VI  2:12.1   1:28.1  512.4 
140Joshua CherwinskimPaddy Power III  2:12.2   1:28.1  511.3 
141Larry TaitMTeam Oarsome I  2:12.2   1:28.1  511.3 
142Dave MikoskaMSub 7 XII  2:12.2   1:28.1  511.3 
143Robert ElliottMRowPro Rowers II  2:12.3   1:28.2  510.1 
144John SteventonmFree Spirits II  2:12.3   1:28.2  510.1 
145Doug RollandMRowPro Rowers III  2:12.5   1:28.3  507.8 
146Matthew BrownMSub 7 XII  2:12.7   1:28.5  505.5 
147david FROCmFIRT IV  2:12.7   1:28.5  505.5 
148Simon HallMSub 7 XII  2:12.8   1:28.5  504.4 
149Giles ClarkeMSub 7 XIII  2:12.9   1:28.6  503.2 
150Yan USVMFIRT VIII  2:12.9   1:28.6  503.2 
151Colin O'NeillmPaddy Power IV  2:12.9   1:28.6  503.2 
152James Hall jnrmSub 7 VII  2:13.1   1:28.7  501.0 
153Ant StansbieMSub 7 XIII  2:13.2   1:28.8  499.8 
154Simon OldfieldMSub 7 XIII  2:13.2   1:28.8  499.8 
155JEFF JANEAUMFIRT VIII  2:13.4   1:28.9  497.6 
156jan van de mortelMRowPro Rowers III  2:13.4   1:28.9  497.6 
157Manuel SchorermSub 7 VIII  2:13.5   1:29.0  496.5 
158LuismFIRT V  2:13.6   1:29.1  495.4 
159patrick TERGEMINAMFIRT VIII  2:13.6   1:29.1  495.4 
160Maurice O'KaneMPaddy Power V  2:13.7   1:29.1  494.3 
161Dominic GriersonMSub 7 XIV  2:13.9   1:29.3  492.0 
162Amadee PelgrimMRowPro Rowers III  2:13.9   1:29.3  492.0 
163PongiMEmpty the Tanks II  2:14.0   1:29.3  490.9 
164Stuart JacksonmSub 7 IX  2:14.0   1:29.3  490.9 
165Kay BieriMC2TweetCrew II  2:14.1   1:29.4  489.8 
166stephane.thirionMFIRT IX  2:14.1   1:29.4  489.8 
167Sean McGuiganMSub 7 XIV  2:14.1   1:29.4  489.8 
168Conny J.mRote 87 RK I  2:14.3   1:29.5  487.7 
169SmithyMTribesports II  2:14.3   1:29.5  487.7 
170MerciermFIRT VI  2:14.4   1:29.6  486.6 
171Cian KennedyMPaddy Power V  2:14.4   1:29.6  486.6 
172Christophe MATHIEZMFIRT IX  2:14.5   1:29.7  485.5 
173Lee WaddonMFitness Matters II  2:14.6   1:29.7  484.4 
174Rowland HillsMSub 7 XIV  2:14.6   1:29.7  484.4 
175mavrick usvMFIRT IX  2:14.6   1:29.7  484.4 
176Nick MallorymForum Flyers I  2:14.6   1:29.7  484.4 
177André HenningsMSYC Rowing Crew I  2:14.8   1:29.9  482.2 
178Steve OckerbyMForum Flyers VI  2:14.9   1:29.9  481.2 
179Craig HudsonMIndependent I  2:14.9   1:29.9  481.2 
180Steve BerridgemSub 7 X  2:14.9   1:29.9  481.2 
181Steve SmithMFree Spirits III  2:15.1   1:30.1  479.0 
182Gaz FFMForum Flyers VI  2:15.2   1:30.1  478.0 
183aurelienusvMFIRT X  2:15.2   1:30.1  478.0 
184D WiklanderMRote 87 RK I  2:15.3   1:30.2  476.9 
185henrik_denmarkMSub 7 XV  2:15.5   1:30.3  474.8 
186Deniz MahmutMDLC Gidea Park I  2:15.5   1:30.3  474.8 
187Yousef NassarMForum Flyers VI  2:15.6   1:30.4  473.8 
188Gregory Cook IImTeam Oarsome II  2:15.7   1:30.5  472.7 
189Paul Duncan1MSub 7 XV  2:15.8   1:30.5  471.7 
190Rolf BoersMForum Flyers VII  2:15.9   1:30.6  470.6 
191Mark WildMSub 7 XV  2:15.9   1:30.6  470.6 
192Harry SimonisMSub 7 XVI  2:16.0   1:30.7  469.6 
193Anna LewisFMAD I  2:16.1   1:30.7  468.6 
194Will HaskellmForum Flyers II  2:16.1   1:30.7  468.6 
195Sebastien ChaumioleMFIRT X  2:16.5   1:31.0  464.5 
196Dave BarberMSub 7 XVI  2:16.7   1:31.1  462.4 
197Richard StroudMSub 7 XVI  2:16.7   1:31.1  462.4 
198GeorgeBinghamMSub 7 XVII  2:16.7   1:31.1  462.4 
199Troy MMPaddy Power VI  2:16.8   1:31.2  461.4 
200schueyMSub 7 XVII  2:16.9   1:31.3  460.4 
201Paul HolbrookMSub 7 XVII  2:16.9   1:31.3  460.4 
202FatdeckMSub 7 XVIII  2:16.9   1:31.3  460.4 
203Philip SadlerMDLC Gidea Park I  2:17.0   1:31.3  459.4 
204Gene ShueMSub 7 XVIII  2:17.0   1:31.3  459.4 
205Nick FieldingMGee Crew I  2:17.2   1:31.5  457.4 
206John McCarthyMSub 7 XVIII  2:17.2   1:31.5  457.4 
207Nigel BrocktonmSub 7 XI  2:17.3   1:31.5  456.4 
208Jean-Pierre GORINmFIRT VII  2:17.3   1:31.5  456.4 
209Richard CamposMSub 7 XIX  2:17.3   1:31.5  456.4 
210George WhiteMFitness Matters II  2:18.0   1:32.0  449.5 
211Jon TunemFitness Matters I  2:18.1   1:32.1  448.5 
212Felton HumbleMFree Spirits III  2:18.3   1:32.2  446.6 
213Dan DavisMSub 7 XIX  2:18.6   1:32.4  443.7 
214Stuart PowermDLC Gidea Park I  2:18.6   1:32.4  443.7 
215Alfred OkellomSub 7 XII  2:18.6   1:32.4  443.7 
216Steve PricemMAD II  2:18.7   1:32.5  442.7 
217alan wisniewskiMFree Spirits IV  2:18.8   1:32.5  441.7 
218Rae CarterMC2TweetCrew II  2:18.8   1:32.5  441.7 
219Kenneth MurdochMEmpty the Tanks II  2:18.9   1:32.6  440.8 
220Thomas PoppenMRote 87 RK I  2:18.9   1:32.6  440.8 
221LoopingmFIRT VIII  2:18.9   1:32.6  440.8 
222DimosmSub 7 XIII  2:19.0   1:32.7  439.8 
223Fabien FayelmFIRT IX  2:19.1   1:32.7  438.9 
224DECOUB-AIPMFIRT X  2:19.2   1:32.8  437.9 
225Eric PerlorcaMPaddy Power VI  2:19.3   1:32.9  437.0 
226Jef 76k+MSub 7 XIX  2:19.7   1:33.1  433.3 
227SanderJRoosendaalmFree Spirits III  2:19.7   1:33.1  433.3 
228Rachel HarrisFMAD II  2:19.8   1:33.2  432.3 
229Herman de BoermC2TweetCrew I  2:19.8   1:33.2  432.3 
230pierre scheidlerMFIRT XI  2:19.9   1:33.3  431.4 
231Andy BurrowsMTeam Oarsome II  2:19.9   1:33.3  431.4 
232Amanda GrapFPaddy Power I  2:19.9   1:33.3  431.4 
233Glen RhookmForum Flyers III  2:19.9   1:33.3  431.4 
234Steven RichieMSub 7 XX  2:19.9   1:33.3  431.4 
235herve pruneaumFIRT X  2:20.2   1:33.5  428.6 
236Ben MorrisMIndependent I  2:20.2   1:33.5  428.6 
237David SAGONmFIRT XI  2:20.3   1:33.5  427.7 
238Cedi Frederick S7MSub 7 XX  2:20.4   1:33.6  426.8 
239Peter SkeneMSub 7 XX  2:20.5   1:33.7  425.9 
240Xav salamandreMFIRT XI  2:20.5   1:33.7  425.9 
241Sam BlytheMFitness Matters II  2:20.6   1:33.7  425.0 
242Chris WhaleMForum Flyers VII  2:20.7   1:33.8  424.1 
243Jean-Marc HurniMAge Without Limits I  2:20.7   1:33.8  424.1 
244Bill_SchmidtmEmpty the Tanks I  2:20.8   1:33.9  423.2 
245P McNeilMDLC Gidea Park II  2:20.9   1:33.9  422.3 
246Steve MotznyMAge Without Limits I  2:20.9   1:33.9  422.3 
247Jim HeadmGee Crew I  2:21.0   1:34.0  421.4 
248Stefan MarchesanmRowPro Rowers II  2:21.0   1:34.0  421.4 
249Simon LakeMSub 7 XXI  2:21.0   1:34.0  421.4 
250andy warnerMSub 7 XXI  2:21.2   1:34.1  419.6 
251Steve BurkemForum Flyers IV  2:21.2   1:34.1  419.6 
252David JuntaMRowPro Rowers IV  2:21.3   1:34.2  418.7 
253FREELANCE MN EMMA NICOLAMROWING CLUB MANTOVA I  2:21.4   1:34.3  417.8 
254Roger Bjarm ForneboMSub 7 XXI  2:21.5   1:34.3  416.9 
255Graham HolmesMDLC Gidea Park II  2:21.5   1:34.3  416.9 
256PlankymSub 7 XIV  2:21.5   1:34.3  416.9 
257John PriceMDLC Gidea Park II  2:21.6   1:34.4  416.1 
258Richard LindnerMFree Spirits IV  2:21.6   1:34.4  416.1 
259Dave SpeedMTeam Oarsome II  2:21.6   1:34.4  416.1 
260Johan HoekemC2TweetCrew II  2:21.7   1:34.5  415.2 
261Rod ChinnMSub 7 XXII  2:21.7   1:34.5  415.2 
262attieh crossfitMFIRT XI  2:21.8   1:34.5  414.3 
263Rodolphe JanodetmFIRT XII  2:22.0   1:34.7  412.6 
264Taru CaloniusFForum Flyers I  2:22.1   1:34.7  411.7 
265Nicholas VerityMSub 7 XXII  2:22.2   1:34.8  410.8 
266Gaz WoottonMGee Crew II  2:22.3   1:34.9  409.9 
267bojammSub 7 XV  2:22.5   1:35.0  408.2 
268TaraFFIRT I  2:22.6   1:35.1  407.4 
269Richard HallmSub 7 XVI  2:22.6   1:35.1  407.4 
270FREELANCE MN ROCCO GIORGIOMROWING CLUB MANTOVA I  2:22.7   1:35.1  406.5 
271AndrewPJonesMSub 7 XXII  2:23.0   1:35.3  404.0 
272Jerome CoudroyMFIRT XII  2:23.0   1:35.3  404.0 
273Ruud JackelMRowPro Rowers IV  2:23.2   1:35.5  402.3 
274Adam MellMC2TweetCrew III  2:23.2   1:35.5  402.3 
275Borut HafnermC2TweetCrew III  2:23.4   1:35.6  400.6 
276C WestonFSub 7 II  2:23.5   1:35.7  399.7 
277Joe LohmanMFree Spirits IV  2:23.5   1:35.7  399.7 
278Peter WeißMFree Spirits V  2:23.6   1:35.7  398.9 
279Hannah HawkinsFTeam Oarsome I  2:23.7   1:35.8  398.1 
280Carlos RodriguezmSub 7 XVII  2:23.7   1:35.8  398.1 
281Mark UnderwoodmPaddy Power V  2:23.8   1:35.9  397.3 
282Matt LloydMSub 7 XXIII  2:23.8   1:35.9  397.3 
283OranjmIndependent I  2:23.9   1:35.9  396.4 
284Bill WakeleymRowPro Rowers III  2:23.9   1:35.9  396.4 
285gillesUSVMFIRT XII  2:24.1   1:36.1  394.8 
286mphabMSub 7 XXIII  2:24.1   1:36.1  394.8 
287patrice CORNUTMFIRT XII  2:24.3   1:36.2  393.1 
288Jon BoneMTeam Oarsome II  2:24.3   1:36.2  393.1 
289WazzaSub75mSub 7 XVIII  2:24.5   1:36.3  391.5 
290Mark DicksonMIRON OARSMAN I  2:24.5   1:36.3  391.5 
291Richard YMFree Spirits V  2:24.5   1:36.3  391.5 
292Edward TaylormGee Crew II  2:24.9   1:36.6  388.3 
293davidmarksMPaddy Power VI  2:24.9   1:36.6  388.3 
294FREELANCE MN GIAVARA LUCAmROWING CLUB MANTOVA I  2:24.9   1:36.6  388.3 
295Jon P TaylormFree Spirits IV  2:24.9   1:36.6  388.3 
296Rob DrurymEmpty the Tanks II  2:25.1   1:36.7  386.7 
297Mike BrownjohnmDLC Gidea Park II  2:25.4   1:36.9  384.3 
298FREELANCE BG MASSERINI DIEGOmCUS Bergamo I  2:25.6   1:37.1  382.7 
299Jason Robert HarrisMSub 7 XXIII  2:25.7   1:37.1  381.9 
300rowingkiwiFForum Flyers II  2:25.8   1:37.2  381.1 
301FREELANCE MN MAFFEZZOLI EMILIANOMROWING CLUB MANTOVA I  2:25.8   1:37.2  381.1 
302BradT2 FFmForum Flyers V  2:25.8   1:37.2  381.1 
303gary la mouette USVMFIRT XIII  2:26.1   1:37.4  378.8 
304vincent AdemaMFIRT XIII  2:26.3   1:37.5  377.2 
305George KingMTeam Oarsome III  2:26.3   1:37.5  377.2 
306Sion EvansMSub 7 XXIV  2:26.4   1:37.6  376.5 
307FREELANCE MN NASI PIERGIORGIOmROWING CLUB MANTOVA II  2:26.4   1:37.6  376.5 
308FREELANCE MN UVA EMANUELEMROWING CLUB MANTOVA II  2:26.8   1:37.9  373.4 
309Keiren BmThe Banana Boat I  2:26.8   1:37.9  373.4 
310Kristi StoddardFSub 7 III  2:26.9   1:37.9  372.6 
311David PlumbmFree Spirits V  2:27.1   1:38.1  371.1 
312Phil Nolan FSMFree Spirits V  2:27.1   1:38.1  371.1 
313Peter FFMForum Flyers VII  2:27.2   1:38.1  370.4 
314Dan FarmermForum Flyers VI  2:27.2   1:38.1  370.4 
315Tim TierneyMGee Crew II  2:27.3   1:38.2  369.6 
316Tracey AdamsFPaddy Power II  2:27.6   1:38.4  367.4 
317Tracy WatkinsFSub 7 IV  2:27.7   1:38.5  366.6 
318Gaetan LysMFIRT XIII  2:27.9   1:38.6  365.1 
319RGelissenmFree Spirits VI  2:28.0   1:38.7  364.4 
320Phil HollinsMEmpty the Tanks II  2:28.0   1:38.7  364.4 
321Phil LambMFree Spirits VI  2:28.0   1:38.7  364.4 
322Charlotte PiggFMAD III  2:28.2   1:38.8  362.9 
323Robert SnapperMRowPro Rowers IV  2:28.4   1:38.9  361.4 
324Mike WrennMSub 7 XXIV  2:28.5   1:39.0  360.7 
325Paul WilkinsonMSub 7 XXIV  2:28.6   1:39.1  360.0 
326Keryn JonesFPaddy Power III  2:28.8   1:39.2  358.5 
327FREELANCE BG FERRO DANIELEMCUS Bergamo I  2:28.9   1:39.3  357.8 
328Terry FFmForum Flyers VII  2:28.9   1:39.3  357.8 
329Victoria Jane TaylorFSub 7 V  2:29.0   1:39.3  357.1 
330Caz RoyleFSub 7 VI  2:29.2   1:39.5  355.7 
331Lucy OBfPaddy Power IV  2:29.2   1:39.5  355.7 
332Alan Strang (TS)mTribesports I  2:29.4   1:39.6  354.2 
333Yvonne ApitzFSub 7 VII  2:29.5   1:39.7  353.5 
334Carol WoodwardfSub 7 VIII  2:30.2   1:40.1  348.6 
335Rabinowitch LeaFFIRT II  2:30.2   1:40.1  348.6 
336TheRockettMPaddy Power VII  2:30.5   1:40.3  346.5 
337Audrey FerecFRowPro Rowers I  2:30.9   1:40.6  343.8 
338Paul Febery S7mSub 7 XIX  2:30.9   1:40.6  343.8 
339FREELANCE MN TOMMASI GIANNImROWING CLUB MANTOVA II  2:30.9   1:40.6  343.8 
340KåreMFree Spirits VI  2:31.0   1:40.7  343.1 
341thomas jean philippemFIRT XIII  2:31.1   1:40.7  342.4 
342Natalie TrebilcockFGee Crew I  2:31.1   1:40.7  342.4 
343Robert EssexmPaddy Power VI  2:31.2   1:40.8  341.7 
344Paul Corrigan S7MSub 7 XXV  2:31.3   1:40.9  341.1 
345FREELANCE BG NORIS GIGImCUS Bergamo I  2:31.5   1:41.0  339.7 
346A BlythefFitness Matters I  2:31.9   1:41.3  337.0 
347Stefan ReschkeMRowPro Rowers V  2:32.2   1:41.5  335.0 
348Rob CMFree Spirits VI  2:32.2   1:41.5  335.0 
349FREELANCE MN BUOLI ROMANOMROWING CLUB MANTOVA II  2:32.4   1:41.6  333.7 
350AAPaul BuchananMPaddy Power VII  2:32.5   1:41.7  333.1 
351Abby DiazFPaddy Power V  2:32.7   1:41.8  331.8 
352Mike BodeMEmpty the Tanks III  2:32.8   1:41.9  331.1 
353Malwina TrittFC2TweetCrew I  2:32.8   1:41.9  331.1 
354NC StanleyMAge Without Limits II  2:32.9   1:41.9  330.5 
355Jean michel CoupeMFIRT XIV  2:33.2   1:42.1  328.5 
356Dennis LindenbaummFree Spirits VII  2:33.4   1:42.3  327.2 
357Rick BaykomForum Flyers VIII  2:33.7   1:42.5  325.3 
358Bruce FFMForum Flyers VIII  2:33.7   1:42.5  325.3 
359Joe A KeatingmPaddy Power VII  2:33.7   1:42.5  325.3 
360Kerri ChristensenFSub 7 IX  2:33.7   1:42.5  325.3 
361severine.chuniaudfFIRT III  2:33.7   1:42.5  325.3 
362John DarlingMSub 7 XXV  2:34.0   1:42.7  323.4 
363Jenna PaullfGee Crew II  2:34.2   1:42.8  322.2 
364Michael BMPaddy Power VII  2:34.2   1:42.8  322.2 
365Barbara HFFree Spirits I  2:34.2   1:42.8  322.2 
366IainmFree Spirits VII  2:34.3   1:42.9  321.5 
367FREELANCE MN GRASSI MARCELLOMROWING CLUB MANTOVA III  2:34.3   1:42.9  321.5 
368cycloidMSub 7 XXV  2:34.3   1:42.9  321.5 
369Roger CruttendenMGee Crew II  2:34.4   1:42.9  320.9 
370SankamanmPaddy Power VIII  2:34.4   1:42.9  320.9 
371Jet Ski LadyFSub 7 X  2:34.5   1:43.0  320.3 
372TinaosullivanfPaddy Power VI  2:34.5   1:43.0  320.3 
373Nathanael MurdochmEmpty the Tanks III  2:34.8   1:43.2  318.4 
374Alex KartonmThe Banana Boat II  2:34.9   1:43.3  317.8 
375Starr ChilversfThe Banana Boat I  2:34.9   1:43.3  317.8 
376Daniel KeelingmDLC Gidea Park III  2:34.9   1:43.3  317.8 
377Lewy FFMForum Flyers VIII  2:35.2   1:43.5  316.0 
378Tom HaigMGee Crew III  2:35.2   1:43.5  316.0 
379Emily NewtonfSub 7 XI  2:35.5   1:43.7  314.2 
380Peter TullettmFree Spirits VII  2:35.5   1:43.7  314.2 
381John GunnMThe Banana Boat II  2:35.7   1:43.8  313.0 
382Guy BeallemFIRT XIV  2:35.7   1:43.8  313.0 
383Steve CaryMGee Crew III  2:35.8   1:43.9  312.3 
384Arno CaloniusmForum Flyers VIII  2:35.9   1:43.9  311.7 
385Virginie TELLIEZfFIRT IV  2:35.9   1:43.9  311.7 
386JessikahunyfPaddy Power VII  2:36.1   1:44.1  310.6 
387Mike KM BeardmFitness Matters II  2:36.3   1:44.2  309.4 
388olivier usvMFIRT XIV  2:37.0   1:44.7  305.2 
389Carol McilvaneFPaddy Power VIII  2:37.0   1:44.7  305.2 
390Maryanne MaguireFForum Flyers III  2:37.1   1:44.7  304.7 
391Eric JonesMSub 7 XXVI  2:37.2   1:44.8  304.1 
392MarjorieFSub 7 XII  2:37.3   1:44.9  303.5 
393Steve McDonaldMRowPro Rowers V  2:37.6   1:45.1  301.8 
394Ronan LE LIGEOURMFIRT XIV  2:38.3   1:45.5  297.8 
395Jennifer McilvanefPaddy Power VIII  2:38.4   1:45.6  297.2 
396Andrea ArriolafC2TweetCrew II  2:38.5   1:45.7  296.7 
397Debbie BarberFForum Flyers IV  2:38.6   1:45.7  296.1 
398Andrew HillmThe Banana Boat II  2:38.7   1:45.8  295.5 
399Mark KaehlerMEmpty the Tanks III  2:38.7   1:45.8  295.5 
400Godfrey TarlingMSub 7 XXVI  2:39.2   1:46.1  292.8 
401Guillaume PLESIERMFIRT XV  2:39.3   1:46.2  292.2 
402Laura ParkinsonFThe Banana Boat II  2:39.9   1:46.6  288.9 
403Sarah Doyle PPFPaddy Power VIII  2:40.0   1:46.7  288.4 
404Tommy GeeMGee Crew III  2:40.2   1:46.8  287.3 
405Michelle HousengaFFree Spirits II  2:40.3   1:46.9  286.8 
406Laura FairbairnFFree Spirits III  2:40.3   1:46.9  286.8 
407Dougie LawsonMSub 7 XXVI  2:40.5   1:47.0  285.7 
408Joe GerbrickMRowPro Rowers V  2:40.5   1:47.0  285.7 
409Marita AnderssonFRote 87 RK I  2:40.6   1:47.1  285.2 
410Matt GooseMForum Flyers IX  2:40.9   1:47.3  283.6 
411Kevin FinchmSub 7 XX  2:41.0   1:47.3  283.1 
412Kevin PappinMGee Crew IV  2:41.2   1:47.5  282.0 
413CRRohdeMPaddy Power VIII  2:41.3   1:47.5  281.5 
414France BergeronFRowPro Rowers II  2:41.9   1:47.9  278.4 
415Laurence LOPEZFFIRT V  2:42.2   1:48.1  276.8 
416Bluebell31FSub 7 XIII  2:42.2   1:48.1  276.8 
417Frans VliegenbergMC2TweetCrew III  2:42.3   1:48.2  276.3 
418JulietteDeschampsFFIRT VI  2:42.9   1:48.6  273.3 
419Jack GilmoreMForum Flyers IX  2:42.9   1:48.6  273.3 
420Margo JamesfRowPro Rowers III  2:43.0   1:48.7  272.8 
421Richard CourtneymDLC Gidea Park III  2:43.1   1:48.7  272.3 
422chrisifpublicmSub 7 XXI  2:43.1   1:48.7  272.3 
423Claire MilneFDLC Gidea Park I  2:43.3   1:48.9  271.3 
424Arlene Wade (TO)fTeam Oarsome II  2:43.5   1:49.0  270.3 
425flo margelyFFIRT VII  2:43.5   1:49.0  270.3 
426FREELANCE BG LANZONI SfCUS Bergamo I  2:43.7   1:49.1  269.3 
427celineusvfFIRT VIII  2:44.0   1:49.3  267.8 
428Scott DenneymThe Banana Boat II  2:44.7   1:49.8  264.4 
429Volkert WagenarMSub 7 XXVII  2:44.7   1:49.8  264.4 
430FREELANCE BG ARNOLDI GIOVANNIMCUS Bergamo I  2:45.0   1:50.0  263.0 
431Frank TappMThe Banana Boat III  2:45.2   1:50.1  262.0 
432amourausvMFIRT XV  2:45.2   1:50.1  262.0 
433Jack MillsmThe Banana Boat III  2:45.3   1:50.2  261.5 
434gatien41100usvmFIRT XV  2:45.3   1:50.2  261.5 
435Helene FroussardfFIRT IX  2:45.7   1:50.5  259.6 
436Penny MeierfSub 7 XIV  2:45.8   1:50.5  259.2 
437Christina Hicks2FGee Crew III  2:45.8   1:50.5  259.2 
438Helen FloydFPaddy Power IX  2:45.9   1:50.6  258.7 
439Jordon RossmThe Banana Boat III  2:46.1   1:50.7  257.8 
440Lynsey HickmanFSub 7 XV  2:46.3   1:50.9  256.8 
441Lee CrawfordfSub 7 XVI  2:46.7   1:51.1  255.0 
442Karyn McNamaraFEmpty the Tanks I  2:46.8   1:51.2  254.5 
443Alan DixonMThe Banana Boat III  2:47.1   1:51.4  253.2 
444Clive HoddsMThe Banana Boat IV  2:47.9   1:51.9  249.6 
445Andrew StanwayMFree Spirits VII  2:48.0   1:52.0  249.1 
446Andy TrippMTribesports II  2:48.0   1:52.0  249.1 
447Dee AmonfRowPro Rowers IV  2:48.1   1:52.1  248.7 
448n'LasseMRote 87 RK II  2:48.1   1:52.1  248.7 
449Jane DaffernFFree Spirits IV  2:48.2   1:52.1  248.2 
450ShirleyFForum Flyers V  2:48.7   1:52.5  246.0 
451FREELANCE MN SPEGGIORIN ORNELLAfROWING CLUB MANTOVA I  2:48.9   1:52.6  245.2 
452Nadine CoudroyfFIRT X  2:49.2   1:52.8  243.9 
453Jackie HicksFIndependent I  2:49.2   1:52.8  243.9 
454Jenn DavisFSub 7 XVII  2:49.3   1:52.9  243.4 
455Rita RisleyfGee Crew III  2:49.4   1:52.9  243.0 
456Christine WojcikFFree Spirits V  2:49.4   1:52.9  243.0 
457fleedMForum Flyers IX  2:49.6   1:53.1  242.1 
458Harry GoodwinmThe Banana Boat IV  2:49.7   1:53.1  241.7 
459Georgina PriceFForum Flyers VI  2:49.9   1:53.3  240.9 
460Lene Farmen-HallFSub 7 XVIII  2:49.9   1:53.3  240.9 
461Alison WarnerFSub 7 XIX  2:50.0   1:53.3  240.4 
462Joe MaddenMRowPro Rowers VI  2:50.9   1:53.9  236.7 
463Kathy SchofieldFForum Flyers VII  2:51.1   1:54.1  235.8 
464Jonathan Turns ETTMEmpty the Tanks III  2:51.2   1:54.1  235.4 
465Kristen CherwinskiFPaddy Power IX  2:51.6   1:54.4  233.8 
466Bryan TapsellmSub 7 XXII  2:51.8   1:54.5  233.0 
467clareburrellfFree Spirits VI  2:52.0   1:54.7  232.1 
468TimDAV8MSub 7 XXVII  2:52.3   1:54.9  230.9 
469Sam KershawmThe Banana Boat IV  2:52.8   1:55.2  228.9 
470FREELANCE MN CASALI NICOLETTAfROWING CLUB MANTOVA II  2:52.8   1:55.2  228.9 
471NLA 2002mC2TweetCrew III  2:52.8   1:55.2  228.9 
472diana kornbrotFSub 7 XX  2:53.4   1:55.6  226.6 
473Rhonda Bishop S7FSub 7 XXI  2:53.4   1:55.6  226.6 
474Leonie EggerfRowPro Rowers IV  2:53.4   1:55.6  226.6 
475Susie S7fSub 7 XXII  2:53.6   1:55.7  225.8 
476Kay HughesFTeam Oarsome III  2:53.7   1:55.8  225.4 
477Lindsay HewittFDLC Gidea Park II  2:54.0   1:56.0  224.2 
478Annette WammenfRowPro Rowers V  2:54.3   1:56.2  223.1 
479Amanda GurleyFSub 7 XXIII  2:54.9   1:56.6  220.8 
480Joanna DlugoszewskafThe Banana Boat III  2:55.0   1:56.7  220.4 
481morganusvMFIRT XV  2:55.0   1:56.7  220.4 
482Jonathan VictoryMFree Spirits VIII  2:55.7   1:57.1  217.8 
483joW FFFForum Flyers VIII  2:56.2   1:57.5  215.9 
484stephanie.defondaumiereFFIRT XI  2:56.4   1:57.6  215.2 
485Dave StenhouseMThe Banana Boat IV  2:56.6   1:57.7  214.5 
486Marianne Lempi KristensenFC2TweetCrew III  2:57.2   1:58.1  212.3 
487Matthias RauschMEmpty the Tanks IV  2:57.6   1:58.4  210.9 
488Roger BurrellmFree Spirits VIII  2:57.7   1:58.5  210.5 
489Ida PoppenFRote 87 RK II  2:57.9   1:58.6  209.8 
490Peter SheeanmForum Flyers IX  2:58.0   1:58.7  209.5 
491Amie HumphreyfSub 7 XXIII  2:58.2   1:58.8  208.7 
492Cynthia RuniaFAge Without Limits I  2:58.4   1:58.9  208.0 
493Silke BehrendsfRowPro Rowers V  2:58.5   1:59.0  207.7 
494Caroline THEVENOTfFIRT XII  2:58.9   1:59.3  206.3 
495Susan YoungFSub 7 XXIV  2:58.9   1:59.3  206.3 
496PeggyHfFree Spirits VII  2:59.3   1:59.5  204.9 
497FREELANCE BG GIACOMETTI ROSELLAfCUS Bergamo II  2:59.4   1:59.6  204.6 
498carousvfFIRT XIII  3:00.0   2:00.0  202.5 
499Deborah AbbottFSub 7 XXV  3:00.3   2:00.2  201.5 
500Claudia AchenbachFC2TweetCrew IV  3:00.9   2:00.6  199.5 
501Cerys ToombsfThe Banana Boat IV  3:01.7   2:01.1  196.9 
502Debora Abrams WrightFSub 7 XXVI  3:02.0   2:01.3  195.9 
503Liz WestFSub 7 XXVII  3:02.3   2:01.5  195.0 
504Kiera SwainfThe Banana Boat V  3:02.5   2:01.7  194.3 
505Kym FFfForum Flyers IX  3:02.8   2:01.9  193.4 
506angeline bouchardFFIRT XIV  3:04.0   2:02.7  189.6 
507Jill UnderwoodFFree Spirits VIII  3:04.3   2:02.9  188.7 
508FREELANCE BG PIOMBINO SANTINOmCUS Bergamo II  3:04.6   2:03.1  187.8 
509Charlotte Baker2FThe Banana Boat V  3:04.7   2:03.1  187.5 
510Elise Chaumiole IIFFIRT XV  3:06.3   2:04.2  182.7 
511Josh WhiteleymThe Banana Boat V  3:07.1   2:04.7  180.4 
512Penny BatesfSub 7 XXIV  3:07.7   2:05.1  178.6 
513Bob CrawfordMThe Banana Boat V  3:08.2   2:05.5  177.2 
514Candida BfTribesports I  3:09.0   2:06.0  175.0 
515Caroline JoynsonfEmpty the Tanks II  3:09.2   2:06.1  174.4 
516Chole HutsonfThe Banana Boat V  3:09.3   2:06.2  174.1 
517Tony WebsterMThe Banana Boat VI  3:09.6   2:06.4  173.3 
518Matthew BarkermThe Banana Boat VI  3:10.2   2:06.8  171.7 
519FREELANCE BG RUBINI ELDAfCUS Bergamo II  3:11.5   2:07.7  168.2 
520Doug BradleyMThe Banana Boat VI  3:11.6   2:07.7  167.9 
521Nadine BolesFSub 7 XXVII  3:14.3   2:09.5  161.0 
522Mike FogelMEmpty the Tanks IV  3:15.0   2:10.0  159.3 
523Reece TinmurthmThe Banana Boat VI  3:16.5   2:11.0  155.7 
524Charles MorleyMSub 7 XXVIII  3:16.8   2:11.2  155.0 
525Marie HaigFGee Crew IV  3:18.7   2:12.5  150.6 
526Ron LeechMThe Banana Boat VII  3:19.0   2:12.7  149.9 
527Mo AmonfRowPro Rowers VI  3:20.1   2:13.4  147.4 
528FREELANCE MN COMOLA ANNAFROWING CLUB MANTOVA III  3:20.2   2:13.5  147.2 
529Marie MercierfFIRT XVI  3:20.8   2:13.9  145.9 
530abdelak USVMFIRT XVI  3:21.0   2:14.0  145.5 
531Ellie HallfThe Banana Boat VI  3:21.2   2:14.1  145.0 
532Klemen H. 2003mC2TweetCrew IV  3:24.4   2:16.3  138.3 
533JLA 2005mC2TweetCrew IV  3:25.5   2:17.0  136.1 
534FREELANCE BG MALVESTITI ERIKAFCUS Bergamo II  3:25.6   2:17.1  135.9 
535FREELANCE BG MAZZOLA STEFANIAfCUS Bergamo II  3:25.7   2:17.1  135.7 
536Karen BFThe Banana Boat VII  3:28.0   2:18.7  131.3 
537ermalusvmFIRT XVI  3:30.0   2:20.0  127.6 
538chloe41usvmFIRT XVI  3:30.0   2:20.0  127.6 
539Gaynor JohnsonFSub 7 XXVIII  3:30.6   2:20.4  126.5 
540Gillian BurrellfFree Spirits VIII  3:31.4   2:20.9  125.0 
541Ann OttleyFThe Banana Boat VII  3:34.2   2:22.8  120.2 
542michelusvmFIRT XVI  3:35.0   2:23.3  118.9 
543FREELANCE BG FACOETTI ELENAfCUS Bergamo III  3:37.4   2:24.9  115.0 
544kevinusvMFIRT XVII  3:40.0   2:26.7  110.9 
545Isaac StannardmThe Banana Boat VII  3:43.1   2:28.7  106.4 
546FREELANCE BG SCAFILI CLAUDIAFCUS Bergamo III  3:45.1   2:30.1  103.6 
547FREELANCE BG BETTONI DONATAfCUS Bergamo III  3:47.0   2:31.3  101.0 
548Leah Bolton2fThe Banana Boat VII  3:47.0   2:31.3  101.0 
549Amelia JeanfEmpty the Tanks III  3:51.5   2:34.3  95.2 
550Bill CounteMThe Banana Boat VIII  3:52.8   2:35.2  93.6 
551Chris ChadwickmThe Banana Boat VIII  3:54.0   2:36.0  92.2 
552Alex WintermThe Banana Boat VIII  3:54.1   2:36.1  92.1 
553Olivia PotterfThe Banana Boat VIII  3:55.5   2:37.0  90.4 
554Adam CoopermThe Banana Boat VIII  3:55.9   2:37.3  90.0 
555katrin usvFFIRT XVII  3:59.0   2:39.3  86.5 
556mjpermuthfAge Without Limits I  4:00.7   2:40.5  84.7 
557AJ HollandsmThe Banana Boat IX  4:12.0   2:48.0  73.8 
558Phoebe RobinsonfThe Banana Boat IX  4:19.9   2:53.3  67.3 
559Mollie BullockfThe Banana Boat IX  4:20.0   2:53.3  67.2 
560Adam KendallmThe Banana Boat IX  4:21.4   2:54.3  66.1 
561Abbie WorrellfThe Banana Boat IX  4:21.9   2:54.6  65.8 
562teclausvFFIRT XVII  4:30.0   3:00.0  60.0 
563Micheal WoodagemThe Banana Boat X  4:31.6   3:01.1  59.0 
564martineusvfFIRT XVII  4:50.0   3:13.3  48.4 
565Alexia BarberfThe Banana Boat X  4:54.1   3:16.1  46.4 
566Alex WhalemForum Flyers X  5:00.8   3:20.5  43.4 
567Emmie BakerfForum Flyers X  5:12.5   3:28.3  38.7 
568Hazel WhalefForum Flyers X  7:50.6   5:13.7  11.3 
569Nylah "Bean" BakerfForum Flyers X 12:16.5   8:11.0  3.0 
1
101 pts
Sub 7 I 1:59.5
Callan Lavender (H)
Lloyd Gilby (H)
Brett Steels (H)
David Byrnes (L)
Elena Buryak (F)
2
100 pts
Paddy Power I 2:00.8
Ross Love (H)
Andy Benko (H)
noel (H)
Stephen o Sullivan (L)
Amanda Grap (F)
3
99 pts
Forum Flyers I 2:03.8
Dirk Möller (H)
rich pruyn (H)
macroth (H)
Nick Mallory (L)
Taru Calonius (F)
4
98 pts
MAD I 2:03.8
Dave Marshall (H)
Rich Blagrove (H)
j.d (H)
Mark Mitchell (L)
Anna Lewis (F)
5
97 pts
Sub 7 II 2:06.1
Matt Vanstone (H)
Robert Strachan (H)
David Scott (H)
Danny Watson (L)
C Weston (F)
6
96 pts
Paddy Power II 2:06.4
Maciej Maciejewski (H)
Morgan Guthner (H)
Peter Snelson (H)
AARobert diffley (L)
Tracey Adams (F)
7
95 pts
FIRT I 2:07.1
Marcos (H)
GukU (H)
Remy Coubel (H)
Maxence Janodet (L)
Tara (F)
8
94 pts
Sub 7 III 2:07.8
Wallace Wan (H)
Glynn Powell (H)
Barry Greig (H)
Alastair Peake (L)
Kristi Stoddard (F)
9
93 pts
Forum Flyers II 2:08.2
Shawn Baker (H)
hjs (H)
JHilston (H)
Will Haskell (L)
rowingkiwi (F)
10
92 pts
Paddy Power III 2:08.8
PP Lee Bawn (H)
Julian Warrick (H)
Jason McCormack (H)
Joshua Cherwinski (L)
Keryn Jones (F)
11
91 pts
Sub 7 IV 2:09.4
Ian Wilde (H)
Martin Still (H)
Casey Clarke (H)
Turbo (L)
Tracy Watkins (F)
12
90 pts
MAD II 2:10.2
1 Olly Thorne (H)
Pete Marston (H)
Jon Goodall (H)
Steve Price (L)
Rachel Harris (F)
13
89 pts
Free Spirits I 2:10.3
Christopher Ryan (H)
danfennell (H)
Liefcat (H)
DavidHolmberg (L)
Barbara H (F)
14
88 pts
Team Oarsome I 2:10.3
Dave Chmilowskyj (H)
Al Taylor (H)
Larry Tait (H)
Steve Roedde (L)
Hannah Hawkins (F)
15
87 pts
Sub 7 V 2:10.5
Richard Cheeseman (H)
Johnny Kolster (H)
Ian Witt (H)
FS85 (L)
Victoria Jane Taylor (F)
16
86 pts
RowPro Rowers I 2:11.1
Stewart Wyllie (H)
Sebastien Lallier (H)
Ola Hultgren (H)
Arwed Egger (L)
Audrey Ferec (F)
17
85 pts
Paddy Power IV 2:11.6
Maximus (H)
Mike Love (H)
Chris Baldwin (H)
Colin O'Neill (L)
Lucy OB (F)
18
84 pts
Sub 7 VI 2:12.0
Stewart Moss (H)
Robert Jones (H)
Tony Purser (H)
Markku Henriksson (L)
Caz Royle (F)
19
83 pts
FIRT II 2:12.3
Jean-Charles RS (H)
andre.colautti (H)
David LIOT (H)
js.kls (L)
Rabinowitch Lea (F)
20
82 pts
C2TweetCrew I 2:12.9
Andy J Pearce (H)
Charles Anderson (H)
Phil Hoyle (H)
Herman de Boer (L)
Malwina Tritt (F)
21
81 pts
FIRT III 2:13.6
Tjololo (H)
Thierry GOURSOLLE (H)
guillaume.deromanet (H)
Ethienne (L)
severine.chuniaud (F)
22
80 pts
Sub 7 VII 2:13.6
Ben Gilmore (H)
Steve Sidaway (H)
Richard Steventon (H)
James Hall jnr (L)
Yvonne Apitz (F)
23
79 pts
Forum Flyers III 2:13.7
Mark Christie (H)
MarkM FF (H)
Martin FF (H)
Glen Rhook (L)
Maryanne Maguire (F)
24
78 pts
Gee Crew I 2:13.7
Simon Newton (H)
Chris Murray (H)
Nick Fielding (H)
Jim Head (L)
Natalie Trebilcock (F)
25
77 pts
Fitness Matters I 2:14.1
Howard Brammer (H)
Nigel COLLEY (H)
Matthew Tilt (H)
Jon Tune (L)
A Blythe (F)
26
76 pts
Free Spirits II 2:14.3
haaico (H)
gregsmith01748 (H)
Mikkel Ellesøe Hansen (H)
John Steventon (L)
Michelle Housenga (F)
27
75 pts
FIRT IV 2:14.4
max grd (H)
Vivien Marmelat (H)
sylvain.pichenot (H)
david FROC (L)
Virginie TELLIEZ (F)
28
74 pts
Sub 7 VIII 2:14.5
Bjorn Tore Lodding (H)
Stuart Stronach (H)
Jon Ciarlo (H)
Manuel Schorer (L)
Carol Woodward (F)
29
73 pts
Forum Flyers IV 2:15.7
Frank Noorlander (H)
Kevin FF (H)
Lindsayh (H)
Steve Burke (L)
Debbie Barber (F)
30
72 pts
Sub 7 IX 2:15.8
Mark Lysons (H)
Euan Stronach (H)
bakudaina1 (H)
Stuart Jackson (L)
Kerri Christensen (F)
31
71 pts
FIRT V 2:16.1
GUN (H)
Gaël SAGON (H)
Pierre LGM (H)
Luis (L)
Laurence LOPEZ (F)
32
70 pts
Sub 7 X 2:16.4
Andy Townsend (H)
Mike Beauchamp (H)
Warren Matthews (H)
Steve Berridge (L)
Jet Ski Lady (F)
33
69 pts
The Banana Boat I 2:17.1
Little Dan (H)
Funkyrower (H)
Little Chris (L)
Keiren B (L)
Starr Chilvers (F)
34
68 pts
FIRT VI 2:17.1
hugault (H)
Julien ADAN (H)
EricL (H)
Mercier (L)
JulietteDeschamps (F)
35
67 pts
RowPro Rowers II 2:17.7
Michel Pelletier (H)
Bjorn_Stensheim (H)
Robert Elliott (H)
Stefan Marchesan (L)
France Bergeron (F)
36
66 pts
Sub 7 XI 2:17.7
Aaron Lancaster (H)
Bert Dol (H)
Andy Osborn (H)
Nigel Brockton (L)
Emily Newton (F)
37
65 pts
Empty the Tanks I 2:18.2
Rainer Saad (H)
Steve Coles (H)
Mark Bower (H)
Bill_Schmidt (L)
Karyn McNamara (F)
38
64 pts
Paddy Power V 2:18.6
Paosullivan (H)
Maurice O'Kane (H)
Cian Kennedy (H)
Mark Underwood (L)
Abby Diaz (F)
39
63 pts
Sub 7 XII 2:18.7
Dave Mikoska (H)
Matthew Brown (H)
Simon Hall (H)
Alfred Okello (L)
Marjorie (F)
40
62 pts
Rote 87 RK I 2:18.7
Johan Eklund (H)
D Wiklander (H)
Thomas Poppen (H)
Conny J. (L)
Marita Andersson (F)
41
61 pts
FIRT VII 2:18.8
BOYE-AIP (H)
philou71 (H)
stephane blanquart (H)
Jean-Pierre GORIN (L)
flo margely (F)
42
60 pts
Sub 7 XIII 2:20.1
Giles Clarke (H)
Ant Stansbie (H)
Simon Oldfield (H)
Dimos (L)
Bluebell31 (F)
43
59 pts
C2TweetCrew II 2:20.3
Ralf Achenbach (H)
Kay Bieri (H)
Rae Carter (H)
Johan Hoeke (L)
Andrea Arriola (F)
44
58 pts
FIRT VIII 2:20.5
Yan USV (H)
JEFF JANEAU (H)
patrick TERGEMINA (H)
Looping (L)
celineusv (F)
45
57 pts
DLC Gidea Park I 2:20.8
Steve Jennings (H)
Deniz Mahmut (H)
Philip Sadler (H)
Stuart Power (L)
Claire Milne (F)
46
56 pts
Free Spirits III 2:20.9
Paul Victory (H)
Steve Smith (H)
Felton Humble (H)
SanderJRoosendaal (L)
Laura Fairbairn (F)
47
55 pts
RowPro Rowers III 2:21.3
Doug Rolland (H)
jan van de mortel (H)
Amadee Pelgrim (H)
Bill Wakeley (L)
Margo James (F)
48
54 pts
FIRT IX 2:21.6
stephane.thirion (H)
Christophe MATHIEZ (H)
mavrick usv (H)
Fabien Fayel (L)
Helene Froussard (F)
49
53 pts
Forum Flyers V 2:21.8
W de Jong (H)
Nigel Farmer (H)
Todd Carpenter (H)
BradT2 FF (L)
Shirley (F)
50
52 pts
Sub 7 XIV 2:21.9
Dominic Grierson (H)
Sean McGuigan (H)
Rowland Hills (H)
Planky (L)
Penny Meier (F)
51
51 pts
Sub 7 XV 2:23.2
henrik_denmark (H)
Paul Duncan1 (H)
Mark Wild (H)
bojam (L)
Lynsey Hickman (F)
52
50 pts
Tribesports I 2:23.7
Brenan (H)
Ben M (H)
Mike Channin (Tribesports) (H)
Alan Strang (TS) (L)
Candida B (F)
53
49 pts
Sub 7 XVI 2:23.7
Harry Simonis (H)
Dave Barber (H)
Richard Stroud (H)
Richard Hall (L)
Lee Crawford (F)
54
48 pts
FIRT X 2:24.0
aurelienusv (H)
Sebastien Chaumiole (H)
DECOUB-AIP (H)
herve pruneau (L)
Nadine Coudroy (F)
55
47 pts
Forum Flyers VI 2:24.5
Steve Ockerby (H)
Gaz FF (H)
Yousef Nassar (H)
Dan Farmer (L)
Georgina Price (F)
56
46 pts
Sub 7 XVII 2:24.7
GeorgeBingham (H)
schuey (H)
Paul Holbrook (H)
Carlos Rodriguez (L)
Jenn Davis (F)
57
45 pts
Team Oarsome II 2:25.0
Andy Burrows (H)
Dave Speed (H)
Jon Bone (H)
Gregory Cook II (L)
Arlene Wade (TO) (F)
58
44 pts
Sub 7 XVIII 2:25.1
Fatdeck (H)
Gene Shue (H)
John McCarthy (H)
WazzaSub75 (L)
Lene Farmen-Hall (F)
59
43 pts
Paddy Power VI 2:25.3
Troy M (H)
Eric Perlorca (H)
davidmarks (H)
Robert Essex (L)
Tinaosullivan (F)
60
42 pts
Sub 7 XIX 2:27.3
Richard Campos (H)
Dan Davis (H)
Jef 76k+ (H)
Paul Febery S7 (L)
Alison Warner (F)
61
41 pts
Free Spirits IV 2:27.4
alan wisniewski (H)
Richard Lindner (H)
Joe Lohman (H)
Jon P Taylor (L)
Jane Daffern (F)
62
40 pts
FIRT XI 2:27.7
pierre scheidler (H)
Xav salamandre (H)
attieh crossfit (H)
David SAGON (L)
stephanie.defondaumiere (F)
63
39 pts
Gee Crew II 2:28.6
Gaz Wootton (H)
Tim Tierney (H)
Roger Cruttenden (H)
Edward Taylor (L)
Jenna Paull (F)
64
38 pts
DLC Gidea Park II 2:28.6
P McNeil (H)
Graham Holmes (H)
John Price (H)
Mike Brownjohn (L)
Lindsay Hewitt (F)
65
37 pts
ROWING CLUB MANTOVA I 2:28.7
FREELANCE MN EMMA NICOLA (H)
FREELANCE MN ROCCO GIORGIO (H)
FREELANCE MN MAFFEZZOLI EMILIANO (H)
FREELANCE MN GIAVARA LUCA (L)
FREELANCE MN SPEGGIORIN ORNELLA (F)
66
36 pts
Forum Flyers VII 2:28.7
Rolf Boers (H)
Chris Whale (H)
Peter FF (H)
Terry FF (L)
Kathy Schofield (F)
67
35 pts
Free Spirits V 2:30.3
Peter Weiß (H)
Richard Y (H)
Phil Nolan FS (H)
David Plumb (L)
Christine Wojcik (F)
68
34 pts
FIRT XII 2:30.4
Jerome Coudroy (H)
gillesUSV (H)
patrice CORNUT (H)
Rodolphe Janodet (L)
Caroline THEVENOT (F)
69
33 pts
Sub 7 XX 2:31.0
Steven Richie (H)
Cedi Frederick S7 (H)
Peter Skene (H)
Kevin Finch (L)
diana kornbrot (F)
70
32 pts
Empty the Tanks II 2:31.0
Pongi (H)
Kenneth Murdoch (H)
Phil Hollins (H)
Rob Drury (L)
Caroline Joynson (F)
71
31 pts
Sub 7 XXI 2:32.0
Simon Lake (H)
andy warner (H)
Roger Bjarm Fornebo (H)
chrisifpublic (L)
Rhonda Bishop S7 (F)
72
30 pts
Paddy Power VII 2:33.4
TheRockett (H)
AAPaul Buchanan (H)
Michael B (H)
Joe A Keating (L)
Jessikahuny (F)
73
29 pts
ROWING CLUB MANTOVA II 2:33.8
FREELANCE MN UVA EMANUELE (H)
FREELANCE MN BUOLI ROMANO (H)
FREELANCE MN NASI PIERGIORGIO (L)
FREELANCE MN TOMMASI GIANNI (L)
FREELANCE MN CASALI NICOLETTA (F)
74
28 pts
Free Spirits VI 2:34.2
Phil Lamb (H)
Kåre (H)
Rob C (H)
RGelissen (L)
clareburrell (F)
75
27 pts
FIRT XIII 2:34.2
gary la mouette USV (H)
vincent Adema (H)
Gaetan Lys (H)
thomas jean philippe (L)
carousv (F)
76
26 pts
Sub 7 XXII 2:34.4
Rod Chinn (H)
Nicholas Verity (H)
AndrewPJones (H)
Bryan Tapsell (L)
Susie S7 (F)
77
25 pts
RowPro Rowers IV 2:34.8
David Junta (H)
Ruud Jackel (H)
Robert Snapper (H)
Dee Amon (L)
Leonie Egger (F)
78
24 pts
CUS Bergamo I 2:34.9
FREELANCE BG FERRO DANIELE (H)
FREELANCE BG ARNOLDI GIOVANNI (H)
FREELANCE BG MASSERINI DIEGO (L)
FREELANCE BG NORIS GIGI (L)
FREELANCE BG LANZONI S (F)
79
23 pts
Sub 7 XXIII 2:37.3
Matt Lloyd (H)
mphab (H)
Jason Robert Harris (H)
Amie Humphrey (L)
Amanda Gurley (F)
80
22 pts
Paddy Power VIII 2:38.2
CRRohde (H)
Sankaman (L)
Jennifer Mcilvane (L)
Carol Mcilvane (F)
Sarah Doyle PP (F)
81
21 pts
The Banana Boat II 2:38.7
John Gunn (H)
Alex Karton (L)
Andrew Hill (L)
Scott Denney (L)
Laura Parkinson (F)
82
20 pts
Forum Flyers VIII 2:38.9
Bruce FF (H)
Lewy FF (H)
Rick Bayko (L)
Arno Calonius (L)
joW FF (F)
83
19 pts
C2TweetCrew III 2:39.7
Adam Mell (H)
Frans Vliegenberg (H)
Borut Hafner (L)
NLA 2002 (L)
Marianne Lempi Kristensen (F)
84
18 pts
Gee Crew III 2:41.2
Tom Haig (H)
Steve Cary (H)
Tommy Gee (H)
Rita Risley (L)
Christina Hicks2 (F)
85
17 pts
FIRT XIV 2:41.6
Jean michel Coupe (H)
olivier usv (H)
Ronan LE LIGEOUR (H)
Guy Bealle (L)
angeline bouchard (F)
86
16 pts
Sub 7 XXIV 2:42.0
Sion Evans (H)
Mike Wrenn (H)
Paul Wilkinson (H)
Penny Bates (L)
Susan Young (F)
87
15 pts
Free Spirits VII 2:42.1
Andrew Stanway (H)
Dennis Lindenbaum (L)
Iain (L)
Peter Tullett (L)
PeggyH (F)
88
14 pts
RowPro Rowers V 2:44.6
Stefan Reschke (H)
Steve McDonald (H)
Joe Gerbrick (H)
Annette Wammen (L)
Silke Behrends (F)
89
13 pts
Age Without Limits I 2:46.5
Graeme Marshall (H)
Jean-Marc Hurni (H)
Steve Motzny (H)
mjpermuth (L)
Cynthia Runia (F)
90
12 pts
The Banana Boat III 2:47.7
Frank Tapp (H)
Alan Dixon (H)
Jack Mills (L)
Jordon Ross (L)
Joanna Dlugoszewska (F)
91
11 pts
FIRT XV 2:50.2
Guillaume PLESIER (H)
amourausv (H)
morganusv (H)
gatien41100usv (L)
Elise Chaumiole II (F)
92
10 pts
Forum Flyers IX 2:50.8
Matt Goose (H)
Jack Gilmore (H)
fleed (H)
Peter Sheean (L)
Kym FF (F)
93
9 pts
The Banana Boat IV 2:53.7
Clive Hodds (H)
Dave Stenhouse (H)
Harry Goodwin (L)
Sam Kershaw (L)
Cerys Toombs (F)
94
8 pts
Empty the Tanks III 2:53.8
Mike Bode (H)
Mark Kaehler (H)
Jonathan Turns ETT (H)
Nathanael Murdoch (L)
Amelia Jean (F)
95
7 pts
The Banana Boat V 3:06.3
Bob Crawford (H)
Josh Whiteley (L)
Kiera Swain (L)
Chole Hutson (L)
Charlotte Baker2 (F)
96
6 pts
CUS Bergamo II 3:13.3
FREELANCE BG PIOMBINO SANTINO (L)
FREELANCE BG RUBINI ELDA (L)
FREELANCE BG MAZZOLA STEFANIA (L)
FREELANCE BG GIACOMETTI ROSELLA (F)
FREELANCE BG MALVESTITI ERIKA (F)
97
5 pts
The Banana Boat VI 3:13.8
Tony Webster (H)
Doug Bradley (H)
Matthew Barker (L)
Reece Tinmurth (L)
Ellie Hall (F)
98
4 pts
FIRT XVI 3:27.3
abdelak USV (H)
ermalusv (L)
chloe41usv (L)
michelusv (L)
Marie Mercier (F)
99
3 pts
The Banana Boat VII 3:34.2
Ron Leech (H)
Isaac Stannard (L)
Leah Bolton2 (L)
Karen B (F)
Ann Ottley (F)
100
2 pts
The Banana Boat VIII 3:54.4
Bill Counte (H)
Chris Chadwick (L)
Alex Winter (L)
Adam Cooper (L)
Olivia Potter (F)
101
1 pt
The Banana Boat IX 4:19.0
AJ Hollands (L)
Adam Kendall (L)
Mollie Bullock (L)
Abbie Worrell (L)
Phoebe Robinson (F)
102SYC Rowing Crew I 2:14.8
André Hennings (H)
 
103Fitness Matters II 2:22.3
Lee Waddon (H)
George White (H)
Sam Blythe (H)
Mike KM Beard (L)
104IRON OARSMAN I 2:24.5
Mark Dickson (H)
 
105Independent I 2:27.0
Craig Hudson (H)
Ben Morris (H)
Oranj (L)
Jackie Hicks (F)
106MAD III 2:28.2
Charlotte Pigg (F)
 
107Tribesports II 2:31.1
Smithy (H)
Andy Tripp (H)
 
108Age Without Limits II 2:32.9
NC Stanley (H)
 
109DLC Gidea Park III 2:39.0
Daniel Keeling (L)
Richard Courtney (L)
 
110Sub 7 XXV 2:39.9
Paul Corrigan S7 (H)
John Darling (H)
cycloid (H)
Deborah Abbott (F)
111Team Oarsome III 2:40.0
George King (H)
Kay Hughes (F)
 
112Sub 7 XXVI 2:44.7
Eric Jones (H)
Godfrey Tarling (H)
Dougie Lawson (H)
Debora Abrams Wright (F)
113Paddy Power IX 2:48.7
Helen Floyd (F)
Kristen Cherwinski (F)
 
114Rote 87 RK II 2:53.0
n'Lasse (H)
Ida Poppen (F)
 
115ROWING CLUB MANTOVA III 2:57.2
FREELANCE MN GRASSI MARCELLO (H)
FREELANCE MN COMOLA ANNA (F)
 
116Sub 7 XXVII 2:58.4
Volkert Wagenar (H)
TimDAV8 (H)
Liz West (F)
Nadine Boles (F)
117Gee Crew IV 2:59.9
Kevin Pappin (H)
Marie Haig (F)
 
118RowPro Rowers VI 3:05.5
Joe Madden (H)
Mo Amon (L)
 
119Empty the Tanks IV 3:06.3
Matthias Rausch (H)
Mike Fogel (H)
 
120Free Spirits VIII 3:07.2
Jonathan Victory (H)
Roger Burrell (L)
Gillian Burrell (L)
Jill Underwood (F)
121C2TweetCrew IV 3:16.9
Klemen H. 2003 (L)
JLA 2005 (L)
Claudia Achenbach (F)
 
122Sub 7 XXVIII 3:23.7
Charles Morley (H)
Gaynor Johnson (F)
 
123CUS Bergamo III 3:43.1
FREELANCE BG FACOETTI ELENA (L)
FREELANCE BG BETTONI DONATA (L)
FREELANCE BG SCAFILI CLAUDIA (F)
 
124FIRT XVII 4:14.7
kevinusv (H)
martineusv (L)
katrin usv (F)
teclausv (F)
125The Banana Boat X 4:42.8
Micheal Woodage (L)
Alexia Barber (F)
 
126Forum Flyers X 7:35.1
Alex Whale (L)
Hazel Whale (L)
Nylah "Bean" Baker (L)
Emmie Baker (F)

The Cross-Team Challenge is not supported or endorsed by Concept 2.
Site written by Daren Chandisingh. Please post any problems on the UK Concept 2 forum.

Valid XHTML 1.0 Transitional